Regional Weather Roundup
Issued by NWS Northern Indiana

Home | Current Version | Previous Version | Text Only | Print | Product List | Glossary On
Versions: 1 2 3 4 5 6 7 8 9 10 11 12 13 14 15 16 17 18 19 20 21 22 23 24 25 26 27 28 29 30 31 32 33 34 35 36 37 38 39 40 41 42 43 44 45 46 47 48 49 50
000
ASUS43 KIWX 251110
RWRIWX

KIWX WEATHER ROUNDUP
NATIONAL WEATHER SERVICE NORTHERN INDIANA
700 AM EDT WED MAY 25 2016

NOTE: "FAIR" INDICATES FEW OR NO CLOUDS BELOW 12,000 FEET WITH NO
SIGNIFICANT WEATHER AND/OR OBSTRUCTIONS TO VISIBILITY.

* THESE STATIONS ARE NOT UNDER NWS QUALITY CONTROL. THEY ALSO MAY NOT
  REPORT WEATHER SUCH AS PRECIPITATION OR FOG.

INZ001>027-251200-
NORTHERN INDIANA

CITY           SKY/WX    TMP DP  RH WIND       PRES   REMARKS
GARY*          PTCLDY    66  64  94 SE7       29.99F
VALPARAISO     CLEAR     61  55  81 NE3       30.01S
MICHIGAN CITY* CLEAR     64  55  72 SE3       30.01F
LAPORTE*       CLEAR     62  58  87 CALM      30.02F
KNOX*          PTCLDY    63  48  59 SE5       30.02S
SOUTH BEND     CLEAR     63  54  72 S3        30.03F
ELKHART*       CLEAR     61  59  94 CALM      30.03
GOSHEN         CLEAR     61  53  75 SE5       30.04F
MONTICELLO*    PTCLDY    65  53  66 SE5       30.01F
LOGANSPORT*    MOCLDY    59  55  88 SE6       30.04F
ROCHESTER*     PTCLDY    66  59  77 SE3       30.04F
WARSAW*        PTCLDY    59  54  82 CALM      30.05F
ANGOLA*        CLEAR     55  55 100 CALM      30.06F
FORT WAYNE     MOCLDY    61  53  75 E3        30.07S
HUNTINGTON*    CLOUDY   N/A N/A N/A CALM      30.05F
PERU/GRISSOM   CLOUDY    62  57  83 SE6       30.03F
MARION*        CLOUDY    64  55  73 S5        30.07R

$$
INZ028>050-251200-
CENTRAL INDIANA

CITY           SKY/WX    TMP DP  RH WIND       PRES   REMARKS
LAFAYETTE      CLOUDY    63  56  78 SE3       30.02S
KOKOMO*        MOCLDY    63  54  72 S7        30.05S
MUNCIE*        CLOUDY    67  54  63 S7        30.07S
INDIANAPOLIS   CLOUDY    66  57  72 SE9       30.04S

$$
MIZ043>046-050>051-056>058-064>065-071>073-077>080-251200-
SOUTHWEST LOWER MICHIGAN

CITY           SKY/WX    TMP DP  RH WIND       PRES   REMARKS
BATTLE CREEK   PTCLDY    62  53  72 S5        30.05S
BENTON HARBOR  CLEAR     61  55  81 E3        30.01S
COLDWATER*     CLEAR     59  54  82 CALM      30.06S
HILLSDALE*     CLEAR     63  48  58 CALM      30.07S
HOLLAND        CLEAR     69  58  67 SW5       30.01F
GRAND RAPIDS   MOCLDY    65  55  70 S5        30.02S
KALAMAZOO      PTCLDY    64  53  67 S3        30.05S
STURGIS*       CLEAR     60  54  79 S3        30.04S
THREE RIVERS*  FAIR      61  54  76 CALM      30.04F

$$
OHZ001>008-015>018-024>025-251200-
NORTHWEST OHIO

CITY           SKY/WX    TMP DP  RH WIND       PRES   REMARKS
WAUSEON*         N/A     59  54  82 CALM      30.08R
DEFIANCE       PTCLDY    62  52  69 SW3       30.08R HAZE
FINDLAY        PTCLDY    63  49  60 S8        30.08S
TOLEDO EXPRESS PTCLDY    57  50  77 CALM      30.07R
TOLEDO METCALF CLOUDY    62  49  62 SW6       30.08R
LIMA           CLOUDY    62  50  64 S9        30.10S

$$
AND FOR LAKE MICHIGAN COASTAL AND OPEN LAKE BUOY OBSERVATIONS

STATION/POSITION TEMP    WIND        PRES    VSBY  WAVE
                 AIR SEA DIR/SP/G                  HT/PER
                 (F)     (DEG/KT/KT) (MB)    (MI)  (FT/S)
CALUMET HARBOR    69     170/  4/  6 1014.7F
MICHIGAN CITY     69     140/  9/ 12   N/A
BURNS HARBOR      69     180/  7/ 12 1015.9F
SAINT JOSEPH      67     120/  2/  5 1016.6F
SOUTH LAKE BUOY   54 49  160/  8/  8 1014.4F         1
4 MI NW BRIDGMAN  62 58  140/  6/  6   N/A           1
MICHIGAN CITY     63 57  150/  4/  6   N/A           0

$$
&&




USA.gov is the U.S. government's official web portal to all federal, state and local government web resources and services.